|   |  | Asteroid 2007 YQ56
					
					
					
					
						
					
					
						
							(Preview) 
						
							
								The 280 - 620 metre wide asteroid 2007 YQ56 will make a close pass (47.7 lunar distances, 0.1226 AU), travelling at 18.01 km/second, to the Earth-Moon system on the 2nd July 2014 @ 04:09 UT ±00:01.  See more The Lunar Distance (LD), the distance between Earth and the Moon, equals 384,401 km, (or 0.0025...  | Blobrana | 0 |  |  | 
		
			
			
				
				
					|   |  | Asteroid 2014 KQ76
					
					
					
					
						
					
					
						
							(Preview) 
						
							
								Orbital elements:
2014 KQ76                                           PHA, Earth MOID = 0.0409 AU
Epoch 2014 May 23.0 TT = JDT 2456800.5                  MPC
M 127.94840              (2000.0)            P               Q
n   0.97477121     Peri.  324.77078     -0.05029566     -0.99657744
a   1.0073976      Node   128.02161     +0.93436857     -0.07015210
e   0.4235515      Incl.    4.77689     +0.35274029     +0.04372734
P   1.01           H   2... | Blobrana | 1 |  |  | 
		
			
			
				
				
					|   |  | Asteroid (165) Loreley
					
					
					
					
						
					
					
						
							(Preview) 
						
							
								Asteroid (165) Loreley is at opposition on the 30th June 2014    Magnitude: 11.6  Distance to Sun: 2.87 AU  Distance to Earth: 1.86 AU | Blobrana | 0 |  |  | 
		
			
			
				
				
					|   |  | Asteroid 2014 MV18
					
					
					
					
						
					
					
						
							(Preview) 
						
							
								The 52 - 120 metre wide asteroid 2014 MV18 will make a close pass (7.2 lunar distances, 0.0184 AU), travelling at 6.56 km/second, to the Earth-Moon system on the 30th June 2014 @ 15:57 UT ±00:01.  See more The Lunar Distance (LD), the distance between Earth and the Moon, equals 384,401 km, (or 0.00256 A... | Blobrana | 0 |  |  | 
		
			
			
				
				
					|   |  | Asteroid 2006 YC13
					
					
					
					
						
					
					
						
							(Preview) 
						
							
								The 220 - 490 metre wide asteroid 2006 YC13 will make a close pass (63.4 lunar distances, 0.1629 AU), travelling at 14.53 km/second, to the Earth-Moon system on the 30th June 2014 @ 08:06 UT ±00:01.  See more The Lunar Distance (LD), the distance between Earth and the Moon, equals 384,401 km, (or 0.002...  | Blobrana | 0 |  |  | 
		
			
			
				
				
					|   |  | Asteroid 2014 MR26
					
					
					
					
						
					
					
						
							(Preview) 
						
							
								Orbital elements:
2014 MR26                                                Earth MOID = 0.1108 AU
Epoch 2014 May 23.0 TT = JDT 2456800.5                  MPC
M  24.51442              (2000.0)            P               Q
n   0.70062977     Peri.  266.00039     +0.53467402     -0.83956827
a   1.2554815      Node   151.02331     +0.83250884     +0.50377180
e   0.7659285      Incl.   11.45007     +0.14509559     +0.20332019
P   1.41           H   18.0           G... | Blobrana | 0 |  |  | 
		
			
			
				
				
					|   |  | Asteroid 2014 MQ26
					
					
					
					
						
					
					
						
							(Preview) 
						
							
								Orbital elements:
2014 MQ26                                                Earth MOID = 0.3051 AU
Epoch 2014 May 23.0 TT = JDT 2456800.5                  MPC
M  66.64601              (2000.0)            P               Q
n   0.47243109     Peri.   37.23824     -0.37334619     +0.88867997
a   1.6327151      Node   213.38436     -0.92409883     -0.38149165
e   0.2205689      Incl.   28.93199     -0.08157186     +0.25438560
P   2.09           H   16.5           G   0... | Blobrana | 0 |  |  | 
		
			
			
				
				
					|   |  | Asteroid 2013 XM24
					
					
					
					
						
					
					
						
							(Preview) 
						
							
								The 400 - 900 metre wide asteroid 2013 XM24 will make a close pass (44.0 lunar distances, 0.1131 AU), travelling at 22.34 km/second, to the Earth-Moon system on the 29th June 2014 @ 06:58 UT ±00:01.  See more The Lunar Distance (LD), the distance between Earth and the Moon, equals 384,401 km, (or 0.002...  | Blobrana | 0 |  |  | 
		
			
			
				
				
					|   |  | Asteroid 2014 MX17
					
					
					
					
						
					
					
						
							(Preview) 
						
							
								The 230 - 500 metre wide asteroid 2014 MX17 will make a close pass (64.5 lunar distances, 0.1658 AU), travelling at 23.94 km/second, to the Earth-Moon system on the 28th June 2014 @ 16:54 UT ±00:03.  See more The Lunar Distance (LD), the distance between Earth and the Moon, equals 384,401 km, (or 0.002...  | Blobrana | 0 |  |  | 
		
			
			
				
				
					|   |  | Asteroid 2014 KD39
					
					
					
					
						
					
					
						
							(Preview) 
						
							
								The 53 - 120 metre wide asteroid 2014 KD39 will make a close pass (52.1 lunar distances, 0.1340 AU), travelling at 6.61 km/second, to the Earth-Moon system on the 28th June 2014 @ 16:22 UT ±00:06.  See more The Lunar Distance (LD), the distance between Earth and the Moon, equals 384,401 km, (or 0.00256...  | Blobrana | 0 |  |  | 
		
			
			
				
				
					|   |  | Asteroid 1994 CJ1
					
					
					
					
						
					
					
						
							(Preview) 
						
							
								The 150 - 330 metre wide asteroid 1994 CJ1 will make a close pass (35.3 lunar distances, 0.0907 AU), travelling at 7.63 km/second, to the Earth-Moon system on the 28th June 2014 @ 02:19 UT ±00:01.  See more The Lunar Distance (LD), the distance between Earth and the Moon, equals 384,401 km, (or 0.00256...   | Blobrana | 0 |  |  | 
		
			
			
				
				
					|   |  | Asteroid 2014 MQ18
					
					
					
					
						
					
					
						
							(Preview) 
						
							
								Orbital elements:
2014 MQ18                                                Earth MOID = 0.2020 AU
Epoch 2014 May 23.0 TT = JDT 2456800.5                  MPC
M 328.20937              (2000.0)            P               Q
n   0.18612033     Peri.  332.03274     +0.77211513     +0.62181634
a   3.0381334      Node   346.79414     -0.42115624     +0.34623459
e   0.6158844      Incl.   35.01497     -0.47588407     +0.70247139
P   5.30           H   15.8... | Blobrana | 0 |  |  | 
		
			
			
				
				
					|   |  | Asteroid 2014 MG6
					
					
					
					
						
					
					
						
							(Preview) 
						
							
								The 16 - 35 metre wide asteroid 2014 MG6 will make a close pass (9.5 lunar distances, 0.0244 AU), travelling at 5.31 km/second, to the Earth-Moon system on the 27th June 2014 @ 14:41 UT ±00:01.  See more The Lunar Distance (LD), the distance between Earth and the Moon, equals 384,401 km, (or 0.00256 AU)... | Blobrana | 0 |  |  | 
		
			
			
				
				
					|   |  | Asteroid 2014 ME6
					
					
					
					
						
					
					
						
							(Preview) 
						
							
								Orbital elements:
2014 ME6                                                 Earth MOID = 0.0066 AU
Epoch 2014 May 23.0 TT = JDT 2456800.5                  MPC
M 304.63746              (2000.0)            P               Q
n   0.60739453     Peri.   98.21105     +0.98957431     -0.12556314
a   1.3808785      Node   269.02278     +0.08778948     +0.91418209
e   0.5324155      Incl.    4.04588     +0.11417400     +0.38536347
P   1.62           H   25.6           G   0.... | Blobrana | 1 |  |  | 
		
			
			
				
				
					|   |  | Asteroid 2014 MY17
					
					
					
					
						
					
					
						
							(Preview) 
						
							
								The 99 - 220 metre wide asteroid 2014 MY17 made a close pass (35.1 lunar distances, 0.0902 AU), travelling at 14.13 km/second, to the Earth-Moon system on the 26th June 2014 @ 03:27 UT ±00:03.  See more The Lunar Distance (LD), the distance between Earth and the Moon, equals 384,401 km, (or 0.00256 AU)... | Blobrana | 0 |  |  |